[[{"header":{"parameterUnit":"m.s-1","parameterCategory":1,"la1":30.2991,"la2":30.254,"lo1":-89.0895,"lo2":-89.0444,"dy":0.0017,"dx":0.0017,"nx":28,"ny":28,"refTime":"2023-09-17T03:00:00:Z","depth":0,"parameterNumber":2,"parameterNumberName":"U-component_of_WINDS"},"data":[0,0,0,0,0,0,0,0,0,0,0,0,0,0,0,0,0,0,0,0,0,0,0,0,0,0,0,0,0,0,0,0,0,0,0,0,0,0,0,0,0,0,0,0,0,0,0,0,0,0,0,0,0,0,0,0,0,0,3.2619,3.2619,0,3.2574,3.2573,3.2573,3.2428,3.2425,3.2422,3.2418,3.2376,3.2377,3.2379,0,0,0,0,0,0,0,0,0,0,0,0,0,3.2585,3.2587,3.2619,3.2619,3.2618,3.2574,3.2573,3.2573,3.2429,3.2425,3.2421,3.2417,3.2375,3.2377,3.2379,0,0,0,0,0,0,0,0,0,0,0,0,0,3.2576,3.2587,3.262,3.2541,3.2533,3.2574,3.2573,3.2572,3.2429,3.2425,3.242,3.2415,3.2374,3.2377,3.238,3.2494,0,0,3.2388,3.2389,0,0,0,0,0,0,0,0,3.2577,3.2578,3.2553,3.2546,3.2538,3.2501,3.2545,3.2546,3.2431,3.2469,3.2418,3.2413,3.2422,3.242,3.2422,3.2492,3.249,3.2388,3.239,3.2391,3.2392,0,0,0,0,0,0,0,3.2578,3.2579,3.2601,3.2553,3.2544,3.2509,3.2502,3.2545,3.2473,3.2465,3.2455,3.2451,3.2417,3.242,3.242,3.2489,3.2388,3.2391,3.2393,3.2394,3.2649,3.2654,0,0,0,0,0,0,3.2589,3.258,3.2603,3.26,3.2546,3.2514,3.2506,3.2518,3.2472,3.246,3.2455,3.2444,3.2418,3.2417,3.2418,3.2547,3.2391,3.2394,3.2396,3.2644,3.265,3.2655,0,0,0,0,0,0,3.2589,3.2592,3.2605,3.2587,3.2586,3.2519,3.2534,3.252,3.2523,3.2465,3.2451,3.2472,3.2414,3.2414,3.2475,3.2544,3.2395,3.2398,3.2638,3.2646,3.2653,3.2807,0,0,0,0,0,0,3.2589,3.2593,3.2635,3.2589,3.2588,3.2662,3.2538,3.2522,3.2528,3.2513,3.2476,3.2466,3.241,3.2472,3.2478,3.2545,3.24,3.2631,3.2641,3.265,3.2796,3.2819,3.2839,0,0,0,0,0,3.2588,3.2681,3.2638,3.2641,3.2638,3.2666,3.2665,3.2598,3.2534,3.2576,3.2538,3.2467,3.2536,3.248,3.2485,3.2554,3.2627,3.2638,3.2649,3.2786,3.2814,3.2839,0,0,0,0,0,0,3.2738,3.2674,3.2625,3.2706,3.2693,3.2642,3.2692,3.2631,3.2636,3.2623,3.2541,3.2534,3.2606,3.2586,3.2525,3.2661,3.2569,3.2583,3.2671,3.2698,3.2719,3.2722,3.2402,0,0,0,0,0,3.2781,3.2808,3.2751,3.2828,3.2824,3.276,3.277,3.2719,3.2702,3.2696,3.2663,3.265,3.2668,3.2682,3.2696,3.2793,3.2782,3.2843,3.2865,3.2883,3.2895,3.2943,3.2969,3.2693,3.2693,3.2693,0,0,3.2869,3.2838,3.286,3.2858,3.2841,3.2871,3.2756,3.2793,3.2815,3.2702,3.2756,3.2732,3.2713,3.2792,3.2825,3.2777,3.2969,3.2898,3.2913,3.2914,3.2958,3.2984,3.3007,3.2701,3.2699,3.2698,0,0,3.3045,3.3025,3.3086,3.3071,3.3047,3.3004,3.3019,3.2977,3.2956,3.301,3.2925,3.2951,3.2985,3.2974,3.2973,3.3146,3.308,3.3153,3.3266,3.3315,3.3336,3.3355,3.3415,3.3438,3.3166,3.3166,3.3166,0,3.3158,3.3199,3.3125,3.3167,3.3169,3.3067,3.3129,3.3119,3.3102,3.3106,3.3053,3.3092,3.3072,3.3146,3.3189,3.3192,3.3206,3.3156,3.3339,3.3357,3.3374,3.343,3.3453,3.3175,3.3174,3.3173,3.3172,0,3.3339,3.3369,3.3422,3.3405,3.3413,3.3465,3.34,3.3417,3.3367,3.333,3.3385,3.3358,3.3364,3.3378,3.333,3.3446,3.3417,3.3353,3.3259,3.341,3.3461,3.3482,3.3187,3.3184,3.3182,3.3179,0,0,3.3607,3.3549,3.3569,3.356,3.3526,3.3549,3.3597,3.3601,3.3617,3.3609,3.3647,3.3678,3.3618,3.3617,3.3567,3.361,3.3747,3.354,3.3538,3.3578,3.3872,3.3918,3.3945,3.3704,3.3708,3.3711,3.3873,0,3.3772,3.3848,3.3783,3.3872,3.3899,3.3803,3.3844,3.3829,3.3796,3.3815,3.3779,3.3802,3.3722,3.372,3.3759,3.3722,3.3804,3.371,3.3738,3.374,3.3744,3.3972,3.4021,3.4175,3.3892,3.3896,3.3898,0,3.3974,3.3973,3.4065,3.4024,3.4033,3.4071,3.4069,3.4089,3.4069,3.4042,3.4042,3.398,3.4025,3.3934,3.3995,3.3932,3.3941,3.3925,3.3929,3.3927,3.3827,3.3975,3.4223,3.4245,3.393,3.3927,3.3925,0,3.4158,3.4181,3.4237,3.4233,3.4188,3.4217,3.4199,3.4175,3.4182,3.4182,3.4185,3.4191,3.4194,3.4201,3.4142,3.4082,3.421,3.4115,3.4189,3.4191,3.4218,3.4217,3.447,3.4228,3.4228,3.4227,3.4227,0,3.4348,3.4408,3.4319,3.4354,3.4418,3.4343,3.4409,3.4382,3.4361,3.439,3.4309,3.4338,3.426,3.4281,3.4237,3.4293,3.4296,3.4275,3.4262,3.4281,3.4284,3.4284,3.4271,3.4233,3.4232,3.4231,3.423,0,3.4564,3.4507,3.4562,3.4514,3.4504,3.4553,3.4512,3.4543,3.4505,3.4542,3.4547,3.4488,3.4508,3.4451,3.4464,3.4434,3.4515,3.4486,3.4521,3.4511,3.4588,3.4581,3.4847,3.4878,3.4619,3.4622,3.4624,0,3.4688,3.473,3.4687,3.4699,3.4686,3.4708,3.4713,3.4643,3.4652,3.4634,3.4667,3.4681,3.4687,3.4725,3.4684,3.4693,3.4662,3.4755,3.4663,3.4681,3.4662,3.4659,3.4662,3.4774,3.4777,3.478,3.4782,0,3.4913,3.4882,3.4893,3.4894,3.4903,3.4901,3.4894,3.4909,3.4833,3.4849,3.4868,3.4873,3.4885,3.49,3.49,3.4883,3.482,3.4811,3.4828,3.4847,3.4865,3.4855,3.4571,3.4805,3.4803,3.4801,3.48,3.4799,3.5085,3.5118,3.5092,3.5106,3.5093,3.5088,3.5114,3.5078,3.5093,3.5095,3.5054,3.5082,3.5061,3.5055,3.5045,3.5066,3.5023,3.5049,3.5055,3.5062,3.5074,3.4864,3.5066,3.5065,3.5065,3.5064,3.5064,0,3.5304,3.5283,3.5297,3.5288,3.5299,3.5238,3.5227,3.5241,3.5266,3.5252,3.526,3.5282,3.5296,3.5256,3.5264,3.5289,3.526,3.5293,3.5289,3.5286,3.5112,3.5095,3.5316,3.5316,3.5316,3.5316,3.5316,3.5316,3.542,3.5472,3.5438,3.5484,3.5462,3.5487,3.5485,3.548,3.5468,3.5496,3.5506,3.5479,3.5455,3.5461,3.5471,3.5459,3.5465,3.5508,3.5486,3.5323,3.5299,3.5275,3.5259,3.551,3.551,3.5657,3.5659,3.566]},{"header":{"parameterUnit":"m.s-1","parameterCategory":1,"la1":30.2991,"la2":30.254,"lo1":-89.0895,"lo2":-89.0444,"dy":0.0017,"dx":0.0017,"nx":28,"ny":28,"refTime":"2023-09-17T03:00:00:Z","depth":0,"parameterNumber":3,"parameterNumberName":"V-component_of_WINDS"},"data":[0,0,0,0,0,0,0,0,0,0,0,0,0,0,0,0,0,0,0,0,0,0,0,0,0,0,0,0,0,0,0,0,0,0,0,0,0,0,0,0,0,0,0,0,0,0,0,0,0,0,0,0,0,0,0,0,0,0,2.0074,2.0076,0,2.0324,2.0327,2.033,2.0373,2.0371,2.0369,2.0367,2.0624,2.0632,2.0641,0,0,0,0,0,0,0,0,0,0,0,0,0,1.963,1.9638,2.0073,2.0077,2.008,2.0324,2.0327,2.0331,2.0373,2.0371,2.0368,2.0366,2.0621,2.0631,2.0642,0,0,0,0,0,0,0,0,0,0,0,0,0,1.9846,1.9641,2.0073,2.013,2.0138,2.0323,2.0327,2.0331,2.0374,2.0371,2.0368,2.0365,2.0617,2.063,2.0643,2.0788,0,0,2.0683,2.0689,0,0,0,0,0,0,0,0,1.9834,1.9862,2.0119,2.0127,2.0136,2.0314,2.0265,2.0485,2.0375,2.0284,2.0367,2.0363,2.0523,2.0544,2.0598,2.08,2.0811,2.0685,2.0693,2.0698,2.0702,0,0,0,0,0,0,0,1.9819,1.9852,2.0173,2.0123,2.0133,2.0143,2.017,2.0307,2.0419,2.0292,2.0296,2.0325,2.0527,2.0585,2.0604,2.0815,2.0684,2.0696,2.0704,2.0709,2.1146,2.115,0,0,0,0,0,0,1.9794,1.9839,2.0165,2.018,1.9974,2.0154,2.0184,2.026,2.0417,2.0438,2.0327,2.0326,2.0564,2.0589,2.0613,2.0793,2.0698,2.0711,2.0718,2.1143,2.1147,2.1151,0,0,0,0,0,0,1.9784,1.9822,2.0155,2.0011,2.0054,2.0165,2.025,2.0267,2.0325,2.0444,2.0464,2.0366,2.0563,2.0595,2.0744,2.0802,2.0717,2.0729,2.1139,2.1144,2.1149,2.1153,0,0,0,0,0,0,1.9771,1.9819,1.9876,2.0012,2.0061,2.0282,2.0253,2.0274,2.0347,2.0348,2.0486,2.0505,2.0563,2.0724,2.0757,2.0819,2.0739,2.1134,2.1141,2.1148,2.1148,2.1158,2.1166,0,0,0,0,0,1.9755,1.9867,1.9878,1.9917,2.0135,2.0285,2.0313,2.0377,2.0352,2.041,2.0485,2.0501,2.079,2.0739,2.0777,2.0843,2.113,2.1139,2.1147,2.1144,2.1156,2.1166,0,0,0,0,0,0,1.9736,1.9886,1.99,2.006,2.0159,2.0292,2.0367,2.0388,2.0497,2.0493,2.0567,2.0597,2.0742,2.0807,2.0748,2.0991,2.0958,2.0974,2.0943,2.0956,2.0964,2.0946,2.075,0,0,0,0,0,1.975,1.986,1.9985,2.0114,2.0163,2.0256,2.0324,2.0364,2.047,2.0512,2.0599,2.0701,2.0815,2.0889,2.1,2.1157,2.1187,2.1221,2.123,2.1237,2.1251,2.1337,2.1353,2.1179,2.1178,2.1178,0,0,1.9781,1.9877,1.9942,2.0112,2.0194,2.0305,2.0291,2.041,2.0493,2.053,2.0676,2.0743,2.0862,2.1015,2.1087,2.1074,2.1305,2.1247,2.1252,2.1262,2.1347,2.1363,2.1378,2.1184,2.1183,2.1182,0,0,1.9895,1.9978,2.0094,2.0175,2.0299,2.0359,2.0387,2.0516,2.0562,2.0709,2.0739,2.0838,2.1033,2.1116,2.1183,2.1323,2.1341,2.1357,2.1406,2.1489,2.1502,2.1515,2.1565,2.1582,2.137,2.137,2.137,0,1.9918,2.0087,2.0151,2.0268,2.0341,2.0378,2.0495,2.0571,2.0725,2.0774,2.0757,2.1001,2.1083,2.1256,2.1289,2.1343,2.1376,2.1343,2.1495,2.1509,2.1521,2.157,2.1588,2.1371,2.1371,2.1371,2.1371,0,2.0109,2.0225,2.0304,2.045,2.0532,2.0648,2.0729,2.0804,2.0835,2.0897,2.1046,2.1145,2.1277,2.132,2.1353,2.1497,2.1485,2.148,2.145,2.1538,2.1585,2.1604,2.1373,2.1373,2.1372,2.1372,0,0,2.0221,2.0398,2.0426,2.0492,2.0629,2.072,2.0837,2.0964,2.1027,2.113,2.123,2.1392,2.1388,2.1465,2.1506,2.1579,2.1683,2.1566,2.157,2.1584,2.1846,2.1849,2.187,2.1694,2.1698,2.1701,2.1836,0,2.035,2.0561,2.062,2.0797,2.0905,2.094,2.1041,2.1136,2.1196,2.1295,2.1361,2.1475,2.1462,2.1508,2.1581,2.1655,2.1737,2.1646,2.1788,2.1792,2.1758,2.1894,2.1899,2.2022,2.1855,2.1858,2.186,0,2.0531,2.0637,2.0825,2.0946,2.0993,2.1084,2.1204,2.1299,2.1406,2.1444,2.1527,2.1562,2.1684,2.1644,2.1813,2.1749,2.181,2.1855,2.1861,2.1878,2.1833,2.1915,2.2063,2.2081,2.189,2.1887,2.1885,0,2.0594,2.0783,2.0919,2.0975,2.1119,2.1182,2.1245,2.1348,2.1421,2.1525,2.1573,2.169,2.1755,2.1844,2.1909,2.1874,2.2071,2.2038,2.2107,2.2105,2.2148,2.2145,2.2308,2.2186,2.2185,2.2185,2.2184,0,2.0733,2.0847,2.0949,2.1033,2.1161,2.1226,2.135,2.1415,2.1506,2.1602,2.1639,2.1729,2.1808,2.1908,2.1959,2.209,2.2119,2.2153,2.2165,2.215,2.2146,2.2193,2.2186,2.219,2.2189,2.2188,2.2187,0,2.0826,2.0899,2.105,2.1173,2.1207,2.1295,2.1401,2.1483,2.1543,2.1664,2.1696,2.1791,2.191,2.1982,2.2133,2.2167,2.2312,2.2321,2.2276,2.2282,2.2347,2.234,2.2546,2.2577,2.2433,2.2434,2.2435,0,2.0911,2.0999,2.1131,2.1198,2.1261,2.1369,2.1442,2.1509,2.1584,2.171,2.1777,2.1898,2.1998,2.2186,2.2268,2.2383,2.2395,2.246,2.2413,2.2395,2.2397,2.2391,2.24,2.2468,2.2469,2.247,2.2471,0,2.1054,2.1085,2.1189,2.1305,2.1391,2.1487,2.1581,2.1634,2.1716,2.1798,2.1919,2.1997,2.215,2.227,2.2391,2.2455,2.2477,2.2484,2.2507,2.2493,2.2464,2.2481,2.2298,2.248,2.2479,2.2479,2.2478,2.2478,2.1146,2.1225,2.133,2.1444,2.1521,2.1608,2.1691,2.176,2.1863,2.1993,2.2025,2.2153,2.2255,2.242,2.2486,2.2586,2.2577,2.2609,2.2617,2.2624,2.2626,2.2446,2.2608,2.2608,2.2608,2.2608,2.2608,0,2.1291,2.1359,2.1463,2.1594,2.1683,2.1694,2.1798,2.1872,2.1984,2.2077,2.2175,2.2313,2.2429,2.2518,2.2636,2.2698,2.2711,2.2727,2.2724,2.2738,2.2627,2.2597,2.2715,2.2715,2.2715,2.2715,2.2715,2.2715,2.1377,2.1511,2.1554,2.1726,2.1793,2.1918,2.1977,2.2057,2.2131,2.2284,2.238,2.2437,2.2528,2.2652,2.2758,2.2781,2.2823,2.2837,2.2862,2.2758,2.2746,2.2735,2.2707,2.2846,2.2846,2.2965,2.2966,2.2967]}]]